[[{"header":{"parameterUnit":"m.s-1","parameterCategory":1,"la1":30.2991,"la2":30.254,"lo1":-89.0895,"lo2":-89.0444,"dy":0.0017,"dx":0.0017,"nx":28,"ny":28,"refTime":"2026-02-15T03:00:00:Z","depth":0,"parameterNumber":2,"parameterNumberName":"U-component_of_WINDS"},"data":[0,0,0,0,0,0,0,0,0,0,0,0,0,0,0,0,0,0,0,0,0,0,0,0,0,0,0,0,0,0,0,0,0,0,0,0,0,0,0,0,0,0,0,0,0,0,0,0,0,0,0,0,0,0,0,0,0,0,-5.5521,-5.5522,0,-5.5657,-5.5658,-5.566,-5.5669,-5.5667,-5.5666,-5.5664,-5.58,-5.5805,-5.581,0,0,0,0,0,0,0,0,0,0,0,0,0,-5.5267,-5.5272,-5.5521,-5.5522,-5.5524,-5.5657,-5.5658,-5.566,-5.5669,-5.5667,-5.5666,-5.5664,-5.5799,-5.5805,-5.5811,0,0,0,0,0,0,0,0,0,0,0,0,0,-5.5388,-5.5273,-5.552,-5.5545,-5.5548,-5.5656,-5.5658,-5.5661,-5.567,-5.5667,-5.5665,-5.5663,-5.5797,-5.5804,-5.5812,-5.5904,0,0,-5.5835,-5.5838,0,0,0,0,0,0,0,0,-5.5381,-5.5397,-5.5539,-5.5543,-5.5547,-5.5644,-5.5619,-5.5742,-5.567,-5.5623,-5.5664,-5.5662,-5.575,-5.5761,-5.5791,-5.591,-5.5916,-5.5835,-5.584,-5.5843,-5.5845,0,0,0,0,0,0,0,-5.5372,-5.5391,-5.5574,-5.5541,-5.5546,-5.5548,-5.5563,-5.5642,-5.5698,-5.5627,-5.5628,-5.5644,-5.5752,-5.5784,-5.5795,-5.5918,-5.5835,-5.5842,-5.5846,-5.5849,-5.612,-5.6122,0,0,0,0,0,0,-5.536,-5.5384,-5.557,-5.5579,-5.5457,-5.5555,-5.5571,-5.5615,-5.5697,-5.5707,-5.5646,-5.5644,-5.5772,-5.5786,-5.58,-5.5912,-5.5843,-5.585,-5.5854,-5.6117,-5.612,-5.6123,0,0,0,0,0,0,-5.5354,-5.5376,-5.5565,-5.5482,-5.5506,-5.5561,-5.5611,-5.5619,-5.5651,-5.5711,-5.5721,-5.5669,-5.5771,-5.5789,-5.5878,-5.5917,-5.5853,-5.586,-5.6114,-5.6118,-5.6122,-5.6139,0,0,0,0,0,0,-5.5347,-5.5374,-5.541,-5.5483,-5.551,-5.5641,-5.5613,-5.5623,-5.5665,-5.5664,-5.5735,-5.5745,-5.5771,-5.5867,-5.5886,-5.5926,-5.5866,-5.611,-5.6116,-5.612,-5.6135,-5.6143,-5.615,0,0,0,0,0,-5.5338,-5.5408,-5.5412,-5.5434,-5.5556,-5.5643,-5.5659,-5.5688,-5.5668,-5.5704,-5.5743,-5.5743,-5.5911,-5.5876,-5.5897,-5.5941,-5.6108,-5.6114,-5.612,-5.6132,-5.6141,-5.615,0,0,0,0,0,0,-5.5337,-5.5418,-5.5423,-5.5519,-5.5575,-5.5645,-5.5691,-5.5697,-5.5759,-5.5755,-5.5788,-5.5804,-5.5892,-5.5926,-5.5885,-5.6035,-5.6007,-5.6018,-5.6009,-5.6019,-5.6026,-5.6014,-5.5873,0,0,0,0,0,-5.5349,-5.5413,-5.5481,-5.5559,-5.5587,-5.5635,-5.5673,-5.5692,-5.575,-5.5773,-5.5818,-5.5874,-5.5939,-5.5981,-5.6045,-5.6141,-5.6157,-5.6182,-5.6189,-5.6195,-5.6203,-5.6257,-5.6269,-5.6143,-5.6143,-5.6142,0,0,-5.5372,-5.5424,-5.5463,-5.556,-5.5605,-5.5671,-5.5654,-5.5724,-5.5773,-5.5783,-5.587,-5.5905,-5.597,-5.6063,-5.6107,-5.6094,-5.6242,-5.6203,-5.6207,-5.6212,-5.6264,-5.6276,-5.6286,-5.6147,-5.6146,-5.6145,0,0,-5.5447,-5.5494,-5.5565,-5.5611,-5.568,-5.5712,-5.5729,-5.58,-5.5824,-5.5912,-5.5921,-5.598,-5.6092,-5.6138,-5.6176,-5.6273,-5.6275,-5.6293,-5.633,-5.6382,-5.6392,-5.6401,-5.6434,-5.6446,-5.6301,-5.6301,-5.6301,0,-5.5467,-5.5567,-5.56,-5.5671,-5.5713,-5.5728,-5.5799,-5.5842,-5.5928,-5.5957,-5.5943,-5.6085,-5.6129,-5.6233,-5.6257,-5.6288,-5.6308,-5.6283,-5.6388,-5.6397,-5.6406,-5.6438,-5.6451,-5.6302,-5.6302,-5.6302,-5.6302,0,-5.5587,-5.5657,-5.5706,-5.579,-5.5839,-5.5909,-5.5952,-5.5997,-5.6012,-5.6045,-5.6136,-5.619,-5.6265,-5.6292,-5.6306,-5.6399,-5.6389,-5.6381,-5.6353,-5.6419,-5.645,-5.6462,-5.6305,-5.6304,-5.6304,-5.6303,0,0,-5.5662,-5.5766,-5.5783,-5.5822,-5.5901,-5.5955,-5.6028,-5.6103,-5.614,-5.62,-5.626,-5.6357,-5.6351,-5.6394,-5.6414,-5.646,-5.6532,-5.6447,-5.6449,-5.6459,-5.6637,-5.664,-5.6654,-5.6536,-5.6538,-5.654,-5.6631,0,-5.5745,-5.5874,-5.5907,-5.6016,-5.6081,-5.6098,-5.616,-5.6215,-5.6249,-5.6309,-5.6346,-5.6413,-5.6401,-5.6427,-5.6474,-5.6513,-5.6568,-5.6508,-5.6591,-5.6593,-5.6571,-5.667,-5.6674,-5.6756,-5.6643,-5.6645,-5.6647,0,-5.5858,-5.5922,-5.6038,-5.611,-5.6139,-5.6194,-5.6266,-5.6324,-5.6387,-5.6408,-5.6458,-5.6475,-5.655,-5.6522,-5.6625,-5.6584,-5.6621,-5.6646,-5.665,-5.6656,-5.6622,-5.6677,-5.6783,-5.6795,-5.6666,-5.6665,-5.6663,0,-5.5899,-5.6014,-5.6099,-5.6132,-5.6219,-5.6257,-5.6295,-5.6357,-5.64,-5.6464,-5.6492,-5.6563,-5.6601,-5.6656,-5.6691,-5.6667,-5.6792,-5.6766,-5.6811,-5.681,-5.6833,-5.6831,-5.6944,-5.6861,-5.6861,-5.6861,-5.686,0,-5.5986,-5.6056,-5.6119,-5.617,-5.6249,-5.6288,-5.6365,-5.6403,-5.6458,-5.6517,-5.6537,-5.6592,-5.6636,-5.6697,-5.6726,-5.6807,-5.6825,-5.6844,-5.685,-5.684,-5.6838,-5.6862,-5.6856,-5.6864,-5.6863,-5.6863,-5.6862,0,-5.6044,-5.6089,-5.6182,-5.6257,-5.6278,-5.6333,-5.6397,-5.6448,-5.6484,-5.6559,-5.6579,-5.6635,-5.6708,-5.675,-5.6841,-5.6861,-5.6951,-5.6955,-5.6929,-5.6931,-5.6973,-5.6967,-5.7104,-5.7123,-5.7029,-5.703,-5.7031,0,-5.6095,-5.615,-5.6232,-5.6274,-5.6313,-5.638,-5.6425,-5.6465,-5.6511,-5.6589,-5.6631,-5.6706,-5.6767,-5.6883,-5.6932,-5.7002,-5.7007,-5.7051,-5.7018,-5.7007,-5.7006,-5.7001,-5.7006,-5.7055,-5.7056,-5.7056,-5.7057,0,-5.6181,-5.6201,-5.6266,-5.634,-5.6393,-5.6453,-5.6512,-5.6545,-5.6595,-5.6646,-5.6722,-5.677,-5.6865,-5.6939,-5.7014,-5.7053,-5.7063,-5.7068,-5.7081,-5.7071,-5.7053,-5.7061,-5.6942,-5.7063,-5.7063,-5.7062,-5.7062,-5.7062,-5.6236,-5.6285,-5.6351,-5.6423,-5.6473,-5.6528,-5.658,-5.6623,-5.6688,-5.6768,-5.6789,-5.6869,-5.6933,-5.7035,-5.7076,-5.7138,-5.713,-5.7151,-5.7155,-5.7159,-5.7159,-5.7046,-5.7152,-5.7152,-5.7152,-5.7152,-5.7152,0,-5.6321,-5.6366,-5.6432,-5.6514,-5.6571,-5.6579,-5.6646,-5.6692,-5.6762,-5.6822,-5.6883,-5.697,-5.7043,-5.7098,-5.7172,-5.7212,-5.7219,-5.723,-5.7226,-5.7234,-5.7163,-5.7143,-5.7223,-5.7223,-5.7223,-5.7223,-5.7223,-5.7223,-5.6372,-5.6456,-5.6485,-5.6594,-5.6637,-5.6716,-5.6754,-5.6805,-5.6852,-5.695,-5.701,-5.7047,-5.7105,-5.7184,-5.7251,-5.7265,-5.7291,-5.7301,-5.7316,-5.7247,-5.7239,-5.7232,-5.7213,-5.7307,-5.7307,-5.7381,-5.7382,-5.7383]},{"header":{"parameterUnit":"m.s-1","parameterCategory":1,"la1":30.2991,"la2":30.254,"lo1":-89.0895,"lo2":-89.0444,"dy":0.0017,"dx":0.0017,"nx":28,"ny":28,"refTime":"2026-02-15T03:00:00:Z","depth":0,"parameterNumber":3,"parameterNumberName":"V-component_of_WINDS"},"data":[0,0,0,0,0,0,0,0,0,0,0,0,0,0,0,0,0,0,0,0,0,0,0,0,0,0,0,0,0,0,0,0,0,0,0,0,0,0,0,0,0,0,0,0,0,0,0,0,0,0,0,0,0,0,0,0,0,0,4.1131,4.1132,0,4.1194,4.1194,4.1195,4.1221,4.122,4.122,4.122,4.128,4.1282,4.1283,0,0,0,0,0,0,0,0,0,0,0,0,0,4.1034,4.1036,4.1131,4.1132,4.1133,4.1193,4.1194,4.1195,4.1221,4.122,4.122,4.122,4.1279,4.1281,4.1284,0,0,0,0,0,0,0,0,0,0,0,0,0,4.1084,4.1036,4.1131,4.1153,4.1156,4.1193,4.1194,4.1195,4.1221,4.122,4.122,4.122,4.1279,4.1281,4.1284,4.1303,0,0,4.1292,4.1293,0,0,0,0,0,0,0,0,4.1081,4.1088,4.1149,4.1152,4.1154,4.1199,4.1182,4.1231,4.1221,4.1196,4.122,4.122,4.1253,4.1258,4.127,4.1306,4.1309,4.1292,4.1293,4.1294,4.1295,0,0,0,0,0,0,0,4.1078,4.1085,4.1156,4.115,4.1153,4.1159,4.1166,4.1191,4.1224,4.1198,4.12,4.1207,4.1254,4.1267,4.1271,4.1309,4.1292,4.1294,4.1296,4.1297,4.1369,4.137,0,0,0,0,0,0,4.1071,4.1082,4.1154,4.1158,4.1117,4.1161,4.1169,4.1185,4.1224,4.123,4.1207,4.1208,4.1263,4.1268,4.1273,4.1302,4.1294,4.1297,4.1298,4.1369,4.1369,4.137,0,0,0,0,0,0,4.1069,4.1077,4.1151,4.1121,4.113,4.1163,4.1181,4.1186,4.1199,4.1232,4.1237,4.1214,4.1263,4.127,4.1297,4.1304,4.1298,4.13,4.1368,4.1369,4.1369,4.1356,0,0,0,0,0,0,4.1066,4.1076,4.1084,4.1121,4.1132,4.1174,4.1181,4.1188,4.1204,4.1206,4.1239,4.1245,4.1263,4.1293,4.1299,4.1307,4.1302,4.1368,4.1369,4.1369,4.1356,4.1356,4.1356,0,0,0,0,0,4.1062,4.1075,4.1084,4.1092,4.1142,4.1174,4.1181,4.1203,4.1204,4.1212,4.1234,4.1244,4.1302,4.1295,4.1303,4.1312,4.1367,4.1368,4.1369,4.1356,4.1356,4.1356,0,0,0,0,0,0,4.1036,4.108,4.109,4.1116,4.1141,4.1178,4.1189,4.1201,4.1225,4.1226,4.1251,4.1259,4.1284,4.1301,4.1292,4.1335,4.1336,4.1338,4.1323,4.1323,4.1323,4.1319,4.1304,0,0,0,0,0,4.1033,4.1056,4.1094,4.1113,4.1125,4.1155,4.117,4.1185,4.1212,4.1222,4.1245,4.127,4.1295,4.131,4.1334,4.1359,4.1368,4.1369,4.1369,4.1369,4.137,4.1388,4.139,4.1373,4.1373,4.1373,0,0,4.1027,4.1055,4.1067,4.1108,4.113,4.1153,4.1164,4.1187,4.1205,4.1225,4.1253,4.1272,4.1301,4.1328,4.1341,4.1343,4.1378,4.137,4.137,4.1371,4.1389,4.1391,4.1392,4.1373,4.1373,4.1373,0,0,4.103,4.1052,4.1072,4.1095,4.1128,4.1149,4.1154,4.119,4.1204,4.1233,4.125,4.1271,4.1312,4.1334,4.135,4.1365,4.1376,4.1372,4.1372,4.139,4.1391,4.1392,4.14,4.1402,4.1374,4.1374,4.1374,0,4.1018,4.1054,4.108,4.1105,4.1123,4.1146,4.1167,4.1187,4.1226,4.1238,4.124,4.1294,4.1315,4.135,4.1354,4.1366,4.1373,4.1368,4.1389,4.139,4.1392,4.14,4.1402,4.1373,4.1373,4.1373,4.1373,0,4.104,4.1065,4.1077,4.1118,4.1138,4.116,4.119,4.1207,4.1222,4.1242,4.1273,4.13,4.1332,4.1341,4.1354,4.1378,4.1379,4.1384,4.1386,4.1393,4.1401,4.1403,4.1373,4.1373,4.1373,4.1373,0,0,4.1024,4.1082,4.1086,4.1107,4.1147,4.1167,4.1192,4.1225,4.1241,4.1267,4.129,4.1326,4.1333,4.1351,4.1367,4.1382,4.1396,4.1387,4.1388,4.1389,4.1428,4.1424,4.1427,4.1404,4.1405,4.1405,4.1426,0,4.1032,4.1079,4.1105,4.114,4.1166,4.119,4.1212,4.1239,4.126,4.1285,4.1307,4.1334,4.1339,4.1351,4.1367,4.1391,4.1405,4.139,4.1425,4.1426,4.1418,4.143,4.1425,4.1443,4.1429,4.1429,4.1429,0,4.1048,4.1078,4.1117,4.1159,4.1171,4.119,4.1225,4.1248,4.1281,4.1295,4.1318,4.1335,4.1363,4.1364,4.1403,4.1393,4.1409,4.1424,4.1425,4.1429,4.1428,4.1436,4.1449,4.1452,4.1434,4.1434,4.1433,0,4.1035,4.1085,4.1116,4.1132,4.1182,4.1195,4.1216,4.1249,4.1269,4.1299,4.1313,4.1344,4.1362,4.1387,4.1413,4.141,4.1451,4.1452,4.1464,4.1464,4.1471,4.147,4.1488,4.148,4.148,4.148,4.148,0,4.1042,4.1065,4.1112,4.113,4.1158,4.1189,4.1215,4.1238,4.1268,4.1292,4.1314,4.1336,4.1369,4.1395,4.1416,4.1447,4.1454,4.1467,4.1472,4.1466,4.1464,4.1477,4.1476,4.1481,4.1481,4.148,4.148,0,4.1032,4.1063,4.1099,4.1145,4.1157,4.1175,4.1214,4.1234,4.1258,4.1289,4.1297,4.1334,4.1367,4.1396,4.1438,4.1452,4.1485,4.149,4.1474,4.1477,4.1488,4.1487,4.1515,4.1521,4.1508,4.1508,4.1508,0,4.1034,4.1053,4.1103,4.1122,4.1143,4.1173,4.1195,4.1226,4.1248,4.129,4.1305,4.134,4.1369,4.1421,4.1451,4.1484,4.1492,4.15,4.1497,4.1491,4.1494,4.1493,4.1496,4.1499,4.1499,4.1499,4.1499,0,4.1036,4.1053,4.1083,4.1121,4.1147,4.1178,4.1209,4.1223,4.1261,4.1284,4.1319,4.1343,4.1389,4.1423,4.1461,4.1483,4.1498,4.15,4.1505,4.1499,4.1489,4.1497,4.1475,4.1499,4.1499,4.1499,4.1499,4.1499,4.1034,4.1053,4.1093,4.1127,4.1155,4.1185,4.1207,4.1236,4.1266,4.1307,4.1324,4.1361,4.1397,4.145,4.1472,4.1501,4.1503,4.1509,4.1511,4.1513,4.1513,4.1485,4.1507,4.1507,4.1507,4.1507,4.1507,0,4.1039,4.1066,4.1098,4.1143,4.1171,4.1186,4.1222,4.1245,4.1277,4.131,4.1341,4.1383,4.1418,4.1453,4.149,4.1507,4.1515,4.1516,4.1515,4.1521,4.1507,4.15,4.1509,4.1509,4.1509,4.1509,4.1509,4.1509,4.1044,4.108,4.1101,4.1151,4.1179,4.1217,4.1237,4.1265,4.1292,4.1339,4.137,4.1393,4.1428,4.1468,4.1502,4.1511,4.1524,4.1524,4.1535,4.1522,4.1521,4.152,4.1514,4.1526,4.1526,4.1546,4.1546,4.1546]}]]